DateTime_Z, AvgLevel/dBm, NumAvg, MinLevel, MaxLevel, RFClipLevel/dBFS, Tune_Hz, Mode, CustomText
"2020-12-01_00:00:01.998", -121.0, 519, -122.6, -119.6, -58.0
"2020-12-01_00:00:12.008", -121.0, 519, -122.7, -119.8, -57.0
"2020-12-01_00:00:22.020", -121.0, 526, -122.6, -119.2, -58.0
"2020-12-01_00:00:32.028", -121.0, 533, -122.4, -119.7, -59.0
"2020-12-01_00:00:42.032", -120.9, 510, -122.8, -119.1, -56.0
"2020-12-01_00:00:52.032", -121.1, 521, -122.5, -119.4, -58.0
"2020-12-01_00:01:02.032", -121.2, 523, -122.6, -120.1, -61.0
"2020-12-01_00:01:12.032", -120.8, 522, -123.2, -114.6, -57.0
"2020-12-01_00:01:22.034", -121.0, 526, -122.8, -118.4, -61.0
"2020-12-01_00:01:32.046", -121.1, 523, -122.5, -119.0, -61.0
"2020-12-01_00:01:42.048", -120.9, 520, -122.9, -117.0, -59.0
"2020-12-01_00:01:52.052", -121.1, 523, -122.9, -119.2, -62.0
"2020-12-01_00:02:02.054", -121.1, 522, -122.3, -119.9, -63.0
"2020-12-01_00:02:12.058", -121.0, 519, -123.0, -119.4, -60.0
"2020-12-01_00:02:22.060", -120.0, 518, -122.6, -112.1, -61.0
"2020-12-01_00:02:32.070", -120.7, 521, -122.5, -118.3, -61.0
"2020-12-01_00:02:42.070", -120.7, 526, -122.6, -117.8, -59.0
"2020-12-01_00:02:52.070", -120.9, 522, -122.5, -119.7, -60.0
"2020-12-01_00:03:02.080", -121.2, 518, -122.9, -119.7, -60.0
"2020-12-01_00:03:12.082", -121.1, 519, -122.6, -119.6, -60.0
"2020-12-01_00:03:22.082", -120.9, 518, -122.3, -119.6, -60.0
"2020-12-01_00:03:32.094", -120.9, 519, -122.6, -119.5, -57.0
"2020-12-01_00:03:42.104", -120.9, 518, -122.3, -119.5, -61.0
"2020-12-01_00:03:52.106", -120.9, 524, -122.4, -119.6, -61.0
"2020-12-01_00:04:02.110", -120.7, 522, -122.7, -118.0, -61.0
"2020-12-01_00:04:12.114", -121.1, 521, -122.7, -119.3, -62.0
"2020-12-01_00:04:22.126", -120.2, 525, -122.2, -112.8, -60.0
"2020-12-01_00:04:32.130", -120.8, 522, -122.3, -119.1, -59.0
"2020-12-01_00:04:42.130", -121.1, 524, -122.7, -119.6, -61.0
"2020-12-01_00:04:52.130", -121.1, 521, -122.5, -119.5, -62.0
"2020-12-01_00:05:02.144", -120.9, 526, -122.4, -119.3, -63.0
"2020-12-01_00:05:12.144", -120.9, 526, -122.4, -119.5, -63.0
"2020-12-01_00:05:22.144", -120.9, 525, -122.1, -119.3, -63.0
"2020-12-01_00:05:32.146", -121.0, 522, -123.1, -119.5, -58.0
"2020-12-01_00:05:42.146", -121.0, 521, -122.1, -119.2, -60.0
"2020-12-01_00:05:52.159", -120.9, 490, -122.9, -119.0, -60.0
"2020-12-01_00:06:02.163", -121.1, 524, -122.5, -119.6, -61.0
"2020-12-01_00:06:12.169", -120.9, 528, -122.4, -117.1, -59.0
"2020-12-01_00:06:22.179", -121.0, 523, -122.6, -119.4, -58.0
"2020-12-01_00:06:32.179", -121.1, 521, -123.1, -120.0, -59.0
"2020-12-01_00:06:42.179", -121.1, 525, -123.0, -119.6, -59.0
"2020-12-01_00:06:52.181", -121.1, 520, -122.7, -119.1, -58.0
"2020-12-01_00:07:02.181", -121.2, 529, -122.9, -119.5, -59.0
"2020-12-01_00:07:12.191", -121.1, 518, -122.6, -119.5, -58.0
"2020-12-01_00:07:22.201", -121.0, 527, -122.7, -119.7, -58.0
"2020-12-01_00:07:32.201", -121.2, 522, -122.5, -119.7, -58.0
"2020-12-01_00:07:42.201", -121.0, 522, -123.0, -116.9, -58.0
"2020-12-01_00:07:52.211", -120.9, 523, -122.8, -119.1, -59.0
"2020-12-01_00:08:02.213", -121.0, 520, -123.0, -119.2, -59.0
"2020-12-01_00:08:12.215", -121.1, 526, -122.6, -118.6, -58.0
"2020-12-01_00:08:22.225", -121.0, 522, -122.6, -119.9, -59.0
"2020-12-01_00:08:32.225", -121.1, 520, -122.6, -119.6, -59.0
"2020-12-01_00:08:42.225", -117.1, 523, -122.0, -106.5, -58.0
"2020-12-01_00:08:52.235", -121.2, 520, -123.1, -119.4, -58.0
"2020-12-01_00:09:02.235", -121.1, 521, -122.8, -119.8, -58.0
"2020-12-01_00:09:12.239", -121.0, 521, -122.8, -118.6, -58.0
"2020-12-01_00:09:22.239", -121.0, 520, -122.7, -120.0, -55.0
"2020-12-01_00:09:32.243", -121.2, 521, -122.8, -120.0, -58.0
"2020-12-01_00:09:42.243", -121.0, 523, -122.8, -118.9, -59.0
"2020-12-01_00:09:52.253", -121.3, 521, -122.5, -120.0, -59.0
"2020-12-01_00:10:02.267", -121.3, 520, -122.9, -120.2, -60.0
"2020-12-01_00:10:12.279", -121.3, 522, -122.8, -120.0, -59.0
"2020-12-01_00:10:22.281", -121.2, 522, -122.7, -119.7, -57.0
"2020-12-01_00:10:32.291", -121.1, 524, -122.6, -115.9, -58.0
"2020-12-01_00:10:42.291", -121.1, 524, -122.4, -119.7, -59.0
"2020-12-01_00:10:52.301", -121.0, 526, -122.4, -119.5, -58.0
"2020-12-01_00:11:02.301", -121.0, 525, -122.8, -119.5, -59.0
"2020-12-01_00:11:12.301", -120.6, 526, -122.4, -115.4, -58.0
"2020-12-01_00:11:22.311", -120.9, 525, -122.9, -118.3, -58.0
"2020-12-01_00:11:32.313", -121.1, 522, -122.6, -119.9, -58.0
"2020-12-01_00:11:42.327", -120.9, 525, -122.3, -119.1, -59.0
"2020-12-01_00:11:52.327", -121.1, 520, -122.7, -119.9, -60.0
"2020-12-01_00:12:02.339", -121.0, 522, -122.5, -119.3, -61.0
"2020-12-01_00:12:12.339", -121.1, 523, -122.4, -119.2, -60.0
"2020-12-01_00:12:22.339", -121.2, 518, -122.5, -120.0, -62.0
"2020-12-01_00:12:32.349", -121.0, 522, -122.2, -120.1, -60.0
"2020-12-01_00:12:42.353", -116.5, 523, -122.2, -104.0, -61.0
"2020-12-01_00:12:52.353", -114.0, 523, -120.8, -106.9, -59.0
"2020-12-01_00:13:02.353", -119.3, 522, -122.2, -115.3, -60.0
"2020-12-01_00:13:12.363", -121.0, 519, -122.4, -119.5, -61.0
"2020-12-01_00:13:22.373", -121.0, 525, -122.8, -119.5, -60.0
"2020-12-01_00:13:32.373", -120.9, 524, -122.7, -119.6, -60.0
"2020-12-01_00:13:42.385", -121.1, 517, -123.2, -119.8, -60.0
"2020-12-01_00:13:52.397", -121.0, 521, -122.4, -119.2, -61.0
"2020-12-01_00:14:02.407", -120.9, 522, -122.3, -118.3, -61.0
"2020-12-01_00:14:12.417", -115.5, 526, -122.4, -108.9, -61.0
"2020-12-01_00:14:22.427", -120.8, 520, -122.3, -119.0, -61.0
"2020-12-01_00:14:32.429", -120.9, 525, -122.4, -118.7, -62.0
"2020-12-01_00:14:42.431", -120.8, 520, -122.0, -117.9, -61.0
"2020-12-01_00:14:52.431", -121.0, 520, -122.6, -119.8, -59.0
"2020-12-01_00:15:02.441", -121.0, 522, -122.7, -119.6, -58.0
"2020-12-01_00:15:12.451", -120.4, 522, -122.4, -114.1, -60.0
"2020-12-01_00:15:22.451", -121.0, 520, -122.6, -119.7, -61.0
"2020-12-01_00:15:32.451", -120.1, 525, -122.4, -116.3, -60.0
"2020-12-01_00:15:42.453", -121.1, 521, -122.2, -119.9, -59.0
"2020-12-01_00:15:52.453", -121.0, 522, -122.6, -119.4, -60.0
"2020-12-01_00:16:02.453", -121.0, 526, -123.4, -118.5, -59.0
"2020-12-01_00:16:12.465", -121.1, 522, -122.4, -119.3, -58.0
"2020-12-01_00:16:22.475", -121.2, 521, -122.9, -119.7, -59.0
"2020-12-01_00:16:32.487", -121.1, 520, -122.8, -118.7, -58.0
"2020-12-01_00:16:42.498", -121.1, 526, -122.8, -117.5, -59.0
"2020-12-01_00:16:52.500", -121.2, 522, -122.8, -119.0, -58.0
"2020-12-01_00:17:02.510", -121.1, 523, -122.8, -118.9, -59.0
"2020-12-01_00:17:12.522", -119.8, 523, -122.6, -116.2, -59.0
"2020-12-01_00:17:22.532", -121.2, 521, -122.9, -120.0, -58.0
"2020-12-01_00:17:32.532", -121.3, 521, -122.8, -119.9, -61.0
"2020-12-01_00:17:42.542", -121.1, 523, -123.0, -119.5, -61.0
"2020-12-01_00:17:52.544", -121.1, 525, -122.7, -120.1, -59.0
"2020-12-01_00:18:02.544", -121.2, 526, -122.5, -119.5, -59.0
"2020-12-01_00:18:12.548", -121.0, 525, -122.7, -118.8, -58.0
"2020-12-01_00:18:22.552", -121.1, 533, -122.8, -119.6, -59.0
"2020-12-01_00:18:32.554", -121.1, 526, -122.3, -119.8, -58.0
"2020-12-01_00:18:42.558", -121.1, 528, -123.0, -120.0, -60.0
"2020-12-01_00:18:52.570", -121.1, 524, -122.6, -119.3, -60.0
"2020-12-01_00:19:02.582", -121.0, 526, -122.4, -119.3, -60.0
"2020-12-01_00:19:12.584", -121.1, 521, -122.5, -119.9, -58.0
"2020-12-01_00:19:22.586", -121.1, 523, -122.5, -119.8, -58.0
"2020-12-01_00:19:32.590", -121.3, 525, -122.8, -120.2, -59.0
"2020-12-01_00:19:42.600", -121.1, 521, -122.7, -118.7, -59.0
"2020-12-01_00:19:52.606", -121.0, 522, -122.5, -119.4, -59.0
"2020-12-01_00:20:02.606", -120.8, 516, -122.6, -119.2, -57.0
"2020-12-01_00:20:12.612", -120.7, 523, -122.4, -117.0, -59.0
"2020-12-01_00:20:22.614", -121.1, 520, -122.6, -119.7, -59.0
"2020-12-01_00:20:32.620", -120.6, 524, -122.3, -115.5, -58.0
"2020-12-01_00:20:42.632", -121.1, 523, -122.8, -119.6, -59.0
"2020-12-01_00:20:52.644", -120.6, 522, -122.2, -119.4, -59.0
"2020-12-01_00:21:02.644", -120.8, 527, -122.5, -119.1, -59.0
"2020-12-01_00:21:12.648", -120.9, 526, -122.6, -119.3, -58.0
"2020-12-01_00:21:22.654", -120.7, 520, -122.5, -119.3, -59.0
"2020-12-01_00:21:32.654", -120.8, 516, -122.2, -118.9, -58.0
"2020-12-01_00:21:42.654", -120.9, 518, -122.3, -117.3, -58.0
"2020-12-01_00:21:52.664", -121.0, 521, -122.4, -119.4, -59.0
"2020-12-01_00:22:02.666", -120.5, 522, -122.4, -113.6, -58.0
"2020-12-01_00:22:12.676", -120.8, 523, -122.3, -116.8, -58.0
"2020-12-01_00:22:22.678", -121.0, 522, -122.7, -119.2, -59.0
"2020-12-01_00:22:32.678", -121.0, 520, -122.6, -119.6, -59.0
"2020-12-01_00:22:42.688", -120.9, 524, -122.7, -116.4, -58.0
"2020-12-01_00:22:52.688", -120.0, 528, -122.3, -112.9, -59.0
"2020-12-01_00:23:02.692", -121.0, 524, -122.3, -118.3, -59.0
"2020-12-01_00:23:12.696", -120.7, 525, -122.5, -118.9, -60.0
"2020-12-01_00:23:22.698", -120.9, 521, -122.8, -119.0, -60.0
"2020-12-01_00:23:32.700", -121.0, 526, -122.6, -119.5, -58.0
"2020-12-01_00:23:42.700", -120.2, 524, -123.3, -109.9, -58.0
"2020-12-01_00:23:52.710", -121.1, 523, -122.4, -119.5, -59.0
"2020-12-01_00:24:02.712", -120.9, 519, -122.4, -119.6, -60.0
"2020-12-01_00:24:12.712", -120.8, 521, -122.5, -118.8, -59.0
"2020-12-01_00:24:22.712", -120.9, 521, -122.5, -117.5, -58.0
"2020-12-01_00:24:32.722", -120.9, 522, -122.6, -118.9, -58.0
"2020-12-01_00:24:42.724", -120.8, 522, -122.3, -119.0, -58.0
"2020-12-01_00:24:52.726", -120.9, 524, -122.1, -119.5, -59.0
"2020-12-01_00:25:02.726", -120.9, 522, -122.8, -118.8, -59.0
"2020-12-01_00:25:12.736", -121.1, 525, -122.6, -119.4, -59.0
"2020-12-01_00:25:22.736", -121.0, 522, -122.7, -119.8, -58.0
"2020-12-01_00:25:32.748", -121.2, 519, -123.2, -119.3, -57.0
"2020-12-01_00:25:42.758", -120.9, 520, -122.1, -117.9, -59.0
"2020-12-01_00:25:52.768", -121.1, 522, -122.4, -119.8, -58.0
"2020-12-01_00:26:02.778", -121.0, 522, -122.7, -119.0, -59.0
"2020-12-01_00:26:12.792", -121.1, 529, -122.5, -119.5, -60.0
"2020-12-01_00:26:22.792", -121.1, 525, -122.8, -119.4, -57.0
"2020-12-01_00:26:32.804", -121.1, 519, -122.5, -119.5, -57.0
"2020-12-01_00:26:42.806", -121.2, 521, -122.6, -119.6, -60.0
"2020-12-01_00:26:52.806", -121.0, 524, -122.4, -119.4, -59.0
"2020-12-01_00:27:02.808", -121.1, 521, -122.4, -119.8, -58.0
"2020-12-01_00:27:12.818", -121.1, 520, -123.5, -119.3, -57.0
"2020-12-01_00:27:22.819", -121.2, 519, -122.5, -120.2, -58.0
"2020-12-01_00:27:32.821", -121.2, 523, -122.6, -120.0, -58.0
"2020-12-01_00:27:42.831", -121.2, 520, -122.5, -119.4, -58.0
"2020-12-01_00:27:52.831", -121.2, 521, -123.0, -118.5, -60.0
"2020-12-01_00:28:02.831", -121.0, 525, -122.7, -117.7, -59.0
"2020-12-01_00:28:12.843", -121.1, 526, -123.0, -119.6, -58.0
"2020-12-01_00:28:22.843", -121.2, 524, -122.4, -119.8, -59.0
"2020-12-01_00:28:32.843", -121.1, 521, -122.7, -119.9, -59.0
"2020-12-01_00:28:42.843", -121.4, 523, -122.9, -119.9, -60.0
"2020-12-01_00:28:52.853", -121.1, 526, -122.6, -119.8, -58.0
"2020-12-01_00:29:02.853", -121.2, 524, -123.0, -119.5, -60.0
"2020-12-01_00:29:12.863", -121.0, 523, -122.7, -119.5, -58.0
"2020-12-01_00:29:22.875", -120.9, 520, -122.8, -119.5, -60.0
"2020-12-01_00:29:32.885", -121.0, 524, -122.4, -119.9, -60.0
"2020-12-01_00:29:42.895", -121.3, 525, -122.8, -119.3, -59.0
"2020-12-01_00:29:52.895", -121.0, 524, -122.8, -119.6, -60.0
"2020-12-01_00:30:02.901", -121.1, 522, -122.7, -119.3, -59.0
"2020-12-01_00:30:12.911", -121.2, 521, -122.8, -119.9, -59.0
"2020-12-01_00:30:22.911", -120.3, 523, -122.4, -111.4, -60.0
"2020-12-01_00:30:32.915", -121.1, 524, -122.7, -119.6, -60.0
"2020-12-01_00:30:42.915", -121.1, 521, -122.7, -119.1, -58.0
"2020-12-01_00:30:52.915", -121.1, 517, -122.9, -119.5, -59.0
"2020-12-01_00:31:02.925", -120.7, 517, -122.6, -111.8, -58.0
"2020-12-01_00:31:12.925", -121.1, 516, -122.4, -119.8, -59.0
"2020-12-01_00:31:22.935", -121.0, 523, -122.6, -119.4, -59.0
"2020-12-01_00:31:32.945", -120.8, 519, -122.4, -118.6, -61.0
"2020-12-01_00:31:42.949", -120.6, 520, -122.5, -118.0, -59.0
"2020-12-01_00:31:52.959", -121.2, 520, -122.6, -119.6, -59.0
"2020-12-01_00:32:02.963", -121.0, 521, -122.7, -118.0, -58.0
"2020-12-01_00:32:12.963", -121.3, 520, -122.7, -119.6, -60.0
"2020-12-01_00:32:22.973", -121.1, 525, -122.7, -119.4, -58.0
"2020-12-01_00:32:32.987", -121.0, 525, -122.3, -119.7, -60.0
"2020-12-01_00:32:42.987", -121.2, 520, -122.8, -119.8, -60.0
"2020-12-01_00:32:52.997", -121.2, 523, -122.7, -119.6, -59.0
"2020-12-01_00:33:02.997", -121.2, 521, -122.8, -119.9, -60.0
"2020-12-01_00:33:13.007", -121.3, 519, -122.8, -119.9, -60.0
"2020-12-01_00:33:23.007", -121.1, 517, -122.7, -118.5, -59.0
"2020-12-01_00:33:33.017", -121.1, 520, -122.7, -119.7, -59.0
"2020-12-01_00:33:43.029", -121.2, 521, -122.7, -119.8, -60.0
"2020-12-01_00:33:53.039", -121.2, 522, -123.1, -120.0, -58.0
"2020-12-01_00:34:03.049", -121.3, 522, -123.1, -119.8, -60.0
"2020-12-01_00:34:13.049", -121.3, 521, -122.9, -119.8, -59.0
"2020-12-01_00:34:23.049", -121.2, 524, -122.7, -119.9, -59.0
"2020-12-01_00:34:33.061", -121.2, 525, -122.5, -118.7, -59.0
"2020-12-01_00:34:43.071", -121.1, 523, -122.6, -119.2, -59.0
"2020-12-01_00:34:53.083", -121.3, 526, -122.9, -119.2, -59.0
"2020-12-01_00:35:03.095", -121.3, 533, -122.7, -120.0, -58.0
"2020-12-01_00:35:13.105", -121.2, 529, -123.2, -116.7, -60.0
"2020-12-01_00:35:23.115", -121.0, 524, -122.7, -115.9, -60.0
"2020-12-01_00:35:33.115", -121.2, 527, -122.9, -119.6, -59.0
"2020-12-01_00:35:43.117", -121.4, 527, -122.6, -119.4, -59.0
"2020-12-01_00:35:53.117", -121.2, 526, -122.4, -119.7, -61.0
"2020-12-01_00:36:03.117", -121.2, 530, -122.7, -119.8, -57.0
"2020-12-01_00:36:13.119", -121.1, 531, -123.1, -119.6, -60.0
"2020-12-01_00:36:23.129", -120.9, 528, -123.3, -118.5, -59.0
"2020-12-01_00:36:33.129", -121.3, 529, -122.9, -119.8, -60.0
"2020-12-01_00:36:43.141", -121.3, 528, -123.0, -119.6, -60.0
"2020-12-01_00:36:53.141", -121.2, 531, -122.9, -119.9, -61.0
"2020-12-01_00:37:03.141", -121.2, 527, -122.6, -120.3, -59.0
"2020-12-01_00:37:13.153", -121.1, 528, -123.0, -119.3, -57.0
"2020-12-01_00:37:23.163", -121.2, 525, -123.0, -118.5, -60.0
"2020-12-01_00:37:33.173", -121.3, 528, -122.6, -120.0, -61.0
"2020-12-01_00:37:43.183", -121.3, 524, -122.9, -119.4, -60.0
"2020-12-01_00:37:53.185", -121.2, 523, -122.9, -119.9, -60.0
"2020-12-01_00:38:03.195", -121.1, 530, -122.7, -119.8, -60.0
"2020-12-01_00:38:13.207", -121.1, 527, -122.9, -119.7, -59.0
"2020-12-01_00:38:23.207", -120.9, 522, -122.6, -119.5, -60.0
"2020-12-01_00:38:33.218", -121.2, 520, -122.7, -119.6, -59.0
"2020-12-01_00:38:43.218", -119.6, 518, -122.3, -116.3, -61.0
"2020-12-01_00:38:53.218", -120.4, 522, -122.6, -117.5, -61.0
"2020-12-01_00:39:03.228", -121.1, 523, -123.0, -119.8, -61.0
"2020-12-01_00:39:13.228", -121.2, 522, -122.8, -120.0, -60.0
"2020-12-01_00:39:23.238", -121.2, 524, -122.9, -119.7, -59.0
"2020-12-01_00:39:33.238", -121.2, 523, -122.8, -119.2, -58.0
"2020-12-01_00:39:43.240", -121.2, 526, -122.8, -119.4, -60.0
"2020-12-01_00:39:53.240", -121.2, 523, -123.2, -119.3, -60.0
"2020-12-01_00:40:03.244", -121.1, 522, -122.5, -119.8, -61.0
"2020-12-01_00:40:13.246", -121.2, 524, -123.1, -119.7, -59.0
"2020-12-01_00:40:23.246", -121.2, 525, -122.8, -119.8, -60.0
"2020-12-01_00:40:33.246", -121.1, 525, -122.4, -119.0, -61.0
"2020-12-01_00:40:43.256", -121.2, 526, -122.6, -118.8, -56.0
"2020-12-01_00:40:53.266", -121.2, 524, -122.9, -119.5, -58.0
"2020-12-01_00:41:03.266", -121.0, 524, -122.4, -119.5, -60.0
"2020-12-01_00:41:13.266", -121.1, 523, -122.5, -120.0, -59.0
"2020-12-01_00:41:23.276", -121.0, 522, -123.0, -119.6, -60.0
"2020-12-01_00:41:33.276", -121.0, 523, -122.4, -119.3, -58.0
"2020-12-01_00:41:43.286", -121.0, 523, -122.2, -119.1, -59.0
"2020-12-01_00:41:53.286", -121.1, 524, -122.6, -118.7, -59.0
"2020-12-01_00:42:03.300", -121.3, 527, -122.5, -120.0, -60.0
"2020-12-01_00:42:13.310", -121.1, 520, -122.9, -119.7, -57.0
"2020-12-01_00:42:23.310", -120.0, 516, -121.9, -118.2, -60.0
"2020-12-01_00:42:33.320", -119.3, 521, -121.0, -117.9, -61.0
"2020-12-01_00:42:43.322", -118.9, 523, -120.6, -116.4, -59.0
"2020-12-01_00:42:53.332", -118.9, 527, -120.7, -116.3, -57.0
"2020-12-01_00:43:03.342", -119.2, 531, -120.9, -117.9, -60.0
"2020-12-01_00:43:13.354", -118.7, 526, -120.3, -117.2, -59.0
"2020-12-01_00:43:23.354", -119.0, 527, -121.2, -117.5, -60.0
"2020-12-01_00:43:33.364", -118.9, 531, -120.4, -116.5, -58.0
"2020-12-01_00:43:43.376", -119.0, 522, -120.9, -117.1, -60.0
"2020-12-01_00:43:53.386", -119.6, 520, -121.4, -118.2, -60.0
"2020-12-01_00:44:03.386", -119.4, 522, -121.6, -117.5, -58.0
"2020-12-01_00:44:13.386", -121.2, 524, -122.6, -119.7, -60.0
"2020-12-01_00:44:23.398", -121.1, 525, -122.7, -119.3, -60.0
"2020-12-01_00:44:33.398", -121.3, 525, -123.0, -120.1, -60.0
"2020-12-01_00:44:43.402", -121.1, 523, -122.7, -119.8, -61.0
"2020-12-01_00:44:53.404", -121.2, 521, -122.6, -119.9, -59.0
"2020-12-01_00:45:03.404", -120.7, 521, -122.7, -115.1, -59.0
"2020-12-01_00:45:13.404", -121.2, 520, -122.7, -119.8, -59.0
"2020-12-01_00:45:23.406", -121.3, 520, -122.9, -119.7, -59.0
"2020-12-01_00:45:33.406", -121.2, 526, -123.1, -120.0, -59.0
"2020-12-01_00:45:43.416", -121.2, 523, -122.6, -120.1, -57.0
"2020-12-01_00:45:53.416", -121.2, 520, -122.6, -120.2, -59.0
"2020-12-01_00:46:03.428", -121.2, 524, -122.2, -120.0, -59.0
"2020-12-01_00:46:13.430", -121.1, 523, -123.3, -119.3, -59.0
"2020-12-01_00:46:23.440", -121.2, 518, -123.0, -119.1, -60.0
"2020-12-01_00:46:33.442", -121.1, 518, -122.6, -119.8, -60.0
"2020-12-01_00:46:43.452", -120.8, 518, -122.2, -117.2, -59.0
"2020-12-01_00:46:53.454", -121.1, 519, -122.6, -119.7, -61.0
"2020-12-01_00:47:03.454", -121.1, 525, -122.6, -119.7, -59.0
"2020-12-01_00:47:13.464", -121.0, 526, -122.7, -119.6, -60.0
"2020-12-01_00:47:23.476", -121.0, 523, -122.7, -119.4, -59.0
"2020-12-01_00:47:33.488", -121.0, 520, -122.4, -119.8, -59.0
"2020-12-01_00:47:43.488", -120.8, 521, -122.1, -119.4, -60.0
"2020-12-01_00:47:53.500", -120.7, 525, -122.2, -119.3, -58.0
"2020-12-01_00:48:03.500", -120.9, 529, -122.3, -119.5, -58.0
"2020-12-01_00:48:13.500", -120.8, 529, -122.3, -119.6, -58.0
"2020-12-01_00:48:23.500", -121.0, 525, -122.8, -119.0, -60.0
"2020-12-01_00:48:33.504", -121.1, 531, -122.9, -119.6, -60.0
"2020-12-01_00:48:43.504", -121.1, 524, -122.4, -119.5, -60.0
"2020-12-01_00:48:53.514", -121.1, 526, -122.7, -119.7, -59.0
"2020-12-01_00:49:03.514", -121.0, 527, -122.5, -119.3, -60.0
"2020-12-01_00:49:13.524", -121.0, 525, -122.6, -119.6, -59.0
"2020-12-01_00:49:23.524", -121.0, 527, -122.4, -119.6, -59.0
"2020-12-01_00:49:33.524", -121.1, 528, -122.5, -119.7, -59.0
"2020-12-01_00:49:43.535", -121.1, 527, -122.6, -119.1, -58.0
"2020-12-01_00:49:53.535", -121.1, 528, -122.7, -119.5, -59.0
"2020-12-01_00:50:03.537", -121.1, 524, -122.4, -119.7, -60.0
"2020-12-01_00:50:13.537", -120.9, 526, -122.4, -119.3, -60.0
"2020-12-01_00:50:23.551", -121.0, 526, -122.4, -119.6, -59.0
"2020-12-01_00:50:33.551", -120.5, 529, -122.6, -112.2, -57.0
"2020-12-01_00:50:43.563", -121.1, 527, -123.3, -119.6, -61.0
"2020-12-01_00:50:53.563", -121.2, 523, -122.5, -119.8, -60.0
"2020-12-01_00:51:03.563", -121.0, 519, -122.5, -119.2, -61.0
"2020-12-01_00:51:13.563", -121.0, 518, -122.9, -119.7, -60.0
"2020-12-01_00:51:23.563", -121.1, 520, -122.7, -119.7, -59.0
"2020-12-01_00:51:33.573", -120.5, 523, -122.3, -119.2, -59.0
"2020-12-01_00:51:43.581", -120.3, 521, -121.7, -118.9, -59.0
"2020-12-01_00:51:53.583", -119.5, 527, -120.9, -115.5, -60.0
"2020-12-01_00:52:03.593", -119.9, 526, -121.3, -118.5, -60.0
"2020-12-01_00:52:13.605", -119.9, 524, -121.4, -117.9, -58.0
"2020-12-01_00:52:23.605", -119.7, 526, -121.2, -118.1, -60.0
"2020-12-01_00:52:33.615", -119.7, 527, -121.3, -117.7, -59.0
"2020-12-01_00:52:43.617", -119.8, 521, -121.2, -118.1, -58.0
"2020-12-01_00:52:53.627", -119.5, 523, -121.1, -116.9, -60.0
"2020-12-01_00:53:03.627", -119.8, 524, -121.1, -118.3, -59.0
"2020-12-01_00:53:13.629", -119.7, 529, -121.2, -118.3, -59.0
"2020-12-01_00:53:23.639", -119.7, 530, -121.2, -118.5, -59.0
"2020-12-01_00:53:33.649", -119.7, 530, -121.5, -118.1, -60.0
"2020-12-01_00:53:43.649", -119.6, 527, -121.7, -118.0, -60.0
"2020-12-01_00:53:53.659", -119.6, 521, -121.1, -118.2, -59.0
"2020-12-01_00:54:03.659", -119.3, 521, -120.7, -117.3, -60.0
"2020-12-01_00:54:13.669", -119.7, 522, -121.5, -117.9, -57.0
"2020-12-01_00:54:23.671", -119.6, 517, -121.2, -118.2, -60.0
"2020-12-01_00:54:33.671", -119.5, 522, -121.7, -118.3, -59.0
"2020-12-01_00:54:43.681", -119.8, 527, -121.4, -118.4, -59.0
"2020-12-01_00:54:53.693", -119.8, 528, -121.2, -118.4, -61.0
"2020-12-01_00:55:03.695", -119.6, 531, -121.2, -116.6, -60.0
"2020-12-01_00:55:13.695", -119.7, 527, -121.4, -118.1, -60.0
"2020-12-01_00:55:23.707", -119.7, 528, -121.2, -118.3, -59.0
"2020-12-01_00:55:33.707", -119.5, 527, -121.0, -118.1, -60.0
"2020-12-01_00:55:43.717", -119.6, 531, -120.8, -117.8, -60.0
"2020-12-01_00:55:53.717", -119.6, 528, -121.3, -117.9, -59.0
"2020-12-01_00:56:03.727", -119.6, 525, -121.3, -118.0, -60.0
"2020-12-01_00:56:13.739", -119.8, 533, -121.6, -117.9, -59.0
"2020-12-01_00:56:23.749", -119.9, 519, -121.5, -118.0, -60.0
"2020-12-01_00:56:33.751", -119.7, 525, -121.7, -118.0, -61.0
"2020-12-01_00:56:43.761", -119.9, 528, -121.3, -118.1, -61.0
"2020-12-01_00:56:53.771", -119.8, 522, -121.5, -118.4, -59.0
"2020-12-01_00:57:03.783", -119.6, 527, -121.5, -117.9, -60.0
"2020-12-01_00:57:13.783", -119.7, 528, -121.0, -118.0, -60.0
"2020-12-01_00:57:23.793", -119.6, 528, -120.9, -117.4, -60.0
"2020-12-01_00:57:33.805", -119.5, 525, -121.3, -118.0, -59.0
"2020-12-01_00:57:43.815", -119.8, 532, -121.2, -118.0, -59.0
"2020-12-01_00:57:53.825", -119.8, 523, -121.1, -118.4, -59.0
"2020-12-01_00:58:03.825", -119.5, 519, -121.6, -117.9, -59.0
"2020-12-01_00:58:13.829", -119.4, 519, -121.2, -115.3, -60.0
"2020-12-01_00:58:23.829", -119.5, 525, -121.5, -118.1, -59.0
"2020-12-01_00:58:33.841", -119.7, 520, -121.2, -118.2, -59.0
"2020-12-01_00:58:43.841", -119.6, 523, -121.4, -118.3, -60.0
"2020-12-01_00:58:53.841", -119.8, 520, -121.6, -118.2, -60.0
"2020-12-01_00:59:03.851", -119.7, 520, -121.2, -117.8, -58.0
"2020-12-01_00:59:13.853", -120.0, 523, -121.5, -118.6, -59.0
"2020-12-01_00:59:23.853", -119.5, 521, -121.3, -117.9, -58.0
"2020-12-01_00:59:33.863", -119.7, 521, -121.3, -117.8, -60.0
"2020-12-01_00:59:43.863", -119.9, 520, -121.5, -118.1, -60.0
"2020-12-01_00:59:53.863", -120.1, 521, -122.0, -118.4, -59.0
